This is the latest recevied weather packets stored in our database for station/object GAPWX. If no packets are shown the sender has not sent any weather packets the latest 10 day(s).
| Time | Temp. | Humidity | Pressure | Rain* | Wind** | Luminosity | Snow |
|---|---|---|---|---|---|---|---|
| 1777490471 | 14.44° C | 43% | 1018.1 hPa | 0 mm | - | - | - |
| 1777489568 | 14.44° C | 42% | 1018.1 hPa | 0 mm | - | - | - |
| 1777488060 | 13.89° C | 46% | 1018.2 hPa | 0 mm | - | - | - |
| 1777485348 | 12.78° C | 45% | 1018.6 hPa | 0 mm | - | - | - |
| 1777485046 | 12.78° C | 46% | 1018.6 hPa | 0 mm | - | - | - |
| 1777483540 | 12.22° C | 48% | 1018.5 hPa | 0 mm | - | - | - |
| 1777483237 | 12.22° C | 49% | 1018.6 hPa | 0 mm | - | - | - |
| 1777482944 | 11.67° C | 50% | 1018.6 hPa | 0 mm | - | - | - |
| 1777482636 | 11.67° C | 48% | 1018.6 hPa | 0 mm | - | - | - |
| 1777482342 | 11.67° C | 50% | 1018.6 hPa | 0 mm | - | - | - |
| 1777482034 | 11.67° C | 51% | 1018.7 hPa | 0 mm | - | - | - |
| 1777481131 | 11.11° C | 53% | 1018.8 hPa | 0 mm | - | - | - |
| 1777480828 | 10.56° C | 53% | 1018.7 hPa | 0 mm | - | - | - |
| 1777480528 | 10.56° C | 54% | 1018.7 hPa | 0 mm | - | - | - |
| 1777479932 | 10° C | 54% | 1018.7 hPa | 0 mm | - | - | - |
| 1777479623 | 10° C | 57% | 1018.7 hPa | 0 mm | - | - | - |
| 1777479321 | 10° C | 57% | 1018.8 hPa | 0 mm | - | - | - |
| 1777478719 | 8.89° C | 59% | 1018.9 hPa | 0 mm | - | - | - |
| 1777478117 | 8.33° C | 61% | 1018.9 hPa | 0 mm | - | - | - |
| 1777477814 | 7.78° C | 62% | 1019 hPa | 0 mm | - | - | - |
| 1777477514 | 7.22° C | 65% | 1019 hPa | 0 mm | - | - | - |
| 1777476614 | 5.56° C | 68% | 1019 hPa | 0 mm | - | - | - |
| 1777476030 | 4.44° C | 69% | 1018.9 hPa | 0 mm | - | - | - |
| 1777473899 | 2.78° C | 73% | 1019 hPa | 0 mm | - | - | - |
| 1777473603 | 2.22° C | 73% | 1019 hPa | 0 mm | - | - | - |
* Rain since midnight (hover to see other rain measurements)
** Current wind speed in m/s (hover to see current wind gust speed)